Bingham Lake, MN

5:16 PM CST on February 22, 2017 (GMT -0600)
Windom Municipal

Weather History for KMWM - March, 2014

Change the Weather History Date:

Monday, March 10, 2014

  Actual Average Record
Temperature  
Mean Temperature 42 °F -  
Max Temperature 50 °F 37 °F 66 °F (2015)
Min Temperature 35 °F 18 °F -9 °F (1979)
Degree Days  
Heating Degree Days 22    
Moisture  
Dew Point 37 °F    
Average Humidity 85    
Maximum Humidity 100    
Minimum Humidity 70    
Precipitation  
Precipitation 0.00 in - - ()
Sea Level Pressure  
Sea Level Pressure 29.70 in    
Wind  
Wind Speed 6 mph (West)    
Max Wind Speed 12 mph    
Max Gust Speed -    
Visibility 8 miles    
Events Fog    
Averages and records for this station are not official NWS values.
T = Trace of Precipitation, MM = Missing Value Source: NWS Daily Summary

Daily Weather History Graph

Daily Weather History Graph

Search for Another Location

Airport or City:

Trip Planner

Search our weather history database for the weather conditions in past years. The results will help you decide how hot, cold, wet, or windy it might be!

Date:

Astronomy

Mar. 10, 2014 Rise Set
Actual Time 7:41 AM CDT 7:20 PM CDT
Civil Twilight 7:12 AM CDT 7:49 PM CDT
Nautical Twilight 6:39 AM CDT 8:22 PM CDT
Astronomical Twilight 6:05 AM CDT 8:56 PM CDT
Moon 1:56 PM CDT (3/10) 4:02 AM CDT (3/10)
Length of Visible Light 12h 36m
Length of Day
11h 38m
Waxing Gibbous, 70% of the Moon is Illuminated
Mar 10
Waxing Gibbous
Mar 16
Full
Mar 23
Last Quarter
Mar 30
New
Apr 7
First Quarter

Hourly Weather History & Observations

Time (CDT) Temp. Windchill Dew Point Humidity Pressure Visibility Wind Dir Wind Speed Gust Speed Precip Events Conditions
12:13 AM 41.0 °F 35.8 °F 33.8 °F 76% 29.68 in 10.0 mi South 8.1 mph - N/A   Clear
12:32 AM 37.4 °F 31.4 °F 33.8 °F 87% 29.69 in 10.0 mi North 8.1 mph - N/A   Clear
12:53 AM 42.8 °F 40.1 °F 33.8 °F 70% 29.69 in 10.0 mi West 4.6 mph - N/A   Clear
1:13 AM 39.2 °F 35.0 °F 33.8 °F 81% 29.70 in 10.0 mi West 5.8 mph - N/A   Clear
1:32 AM 37.4 °F 33.8 °F 33.8 °F 87% 29.70 in 10.0 mi WNW 4.6 mph - N/A   Clear
1:53 AM 39.2 °F 34.2 °F 33.8 °F 81% 29.69 in 10.0 mi WSW 6.9 mph - N/A   Clear
2:13 AM 41.0 °F 36.4 °F 33.8 °F 76% 29.69 in 10.0 mi West 6.9 mph - N/A   Clear
2:32 AM 39.2 °F 33.6 °F 33.8 °F 81% 29.69 in 10.0 mi West 8.1 mph - N/A   Clear
2:53 AM 37.4 °F 30.8 °F 33.8 °F 87% 29.70 in 10.0 mi West 9.2 mph - N/A   Clear
3:13 AM 39.2 °F 32.5 °F 33.8 °F 81% 29.70 in 10.0 mi WSW 10.4 mph - N/A   Clear
3:32 AM 39.2 °F 32.0 °F 33.8 °F 81% 29.69 in 10.0 mi West 11.5 mph - N/A   Clear
3:52 AM 41.0 °F 35.2 °F 33.8 °F 76% 29.68 in 10.0 mi West 9.2 mph - N/A   Clear
4:13 AM 37.4 °F 30.8 °F 33.8 °F 87% 29.68 in 10.0 mi West 9.2 mph - N/A   Clear
4:32 AM 39.2 °F 34.2 °F 33.8 °F 81% 29.68 in 10.0 mi West 6.9 mph - N/A   Clear
4:52 AM 37.4 °F 32.8 °F 33.8 °F 87% 29.68 in 10.0 mi West 5.8 mph - N/A   Clear
5:13 AM 37.4 °F 31.4 °F 33.8 °F 87% 29.68 in 10.0 mi West 8.1 mph - N/A   Clear
5:32 AM 37.4 °F 31.4 °F 33.8 °F 87% 29.68 in 10.0 mi WSW 8.1 mph - N/A   Clear
5:52 AM 37.4 °F 30.8 °F 33.8 °F 87% 29.68 in 10.0 mi WSW 9.2 mph - N/A   Clear
6:13 AM 37.4 °F 30.8 °F 33.8 °F 87% 29.69 in 10.0 mi WSW 9.2 mph - N/A   Clear
6:32 AM 37.4 °F 31.4 °F 33.8 °F 87% 29.69 in 10.0 mi WSW 8.1 mph - N/A   Clear
6:52 AM 37.4 °F 32.1 °F 32.0 °F 81% 29.69 in 10.0 mi WSW 6.9 mph - N/A   Clear
7:12 AM 37.4 °F 31.4 °F 33.8 °F 87% 29.69 in 10.0 mi WSW 8.1 mph - N/A   Clear
7:32 AM 37.4 °F 33.8 °F 32.0 °F 81% 29.70 in 10.0 mi SW 4.6 mph - N/A   Clear
7:53 AM 37.4 °F 31.4 °F 33.8 °F 87% 29.70 in 10.0 mi SW 8.1 mph - N/A   Clear
8:12 AM 37.4 °F 31.4 °F 33.8 °F 87% 29.70 in 10.0 mi SW 8.1 mph - N/A   Clear
8:33 AM 39.2 °F 33.0 °F 33.8 °F 81% 29.70 in 10.0 mi WSW 9.2 mph - N/A   Clear
8:52 AM 41.0 °F 34.7 °F 33.8 °F 76% 29.70 in 10.0 mi SW 10.4 mph - N/A   Clear
9:12 AM 41.0 °F 35.2 °F 33.8 °F 76% 29.70 in 10.0 mi WSW 9.2 mph - N/A   Clear
9:33 AM 41.0 °F 35.2 °F 35.6 °F 81% 29.71 in 10.0 mi West 9.2 mph - N/A   Clear
9:52 AM 39.2 °F 33.0 °F 35.6 °F 87% 29.72 in 10.0 mi WSW 9.2 mph - N/A   Clear
10:12 AM 42.8 °F 39.3 °F 35.6 °F 76% 29.72 in 10.0 mi WSW 5.8 mph - N/A   Clear
10:33 AM 42.8 °F 38.0 °F 35.6 °F 76% 29.72 in 10.0 mi SW 8.1 mph - N/A   Clear
10:52 AM 44.6 °F 39.7 °F 37.4 °F 76% 29.72 in 10.0 mi WSW 9.2 mph - N/A   Clear
11:12 AM 44.6 °F 40.2 °F 37.4 °F 76% 29.73 in 10.0 mi WSW 8.1 mph - N/A   Clear
11:33 AM 44.6 °F 40.2 °F 37.4 °F 76% 29.74 in 10.0 mi WSW 8.1 mph - N/A   Clear
11:52 AM 44.6 °F 40.7 °F 37.4 °F 76% 29.73 in 10.0 mi WSW 6.9 mph - N/A   Clear
12:12 PM 46.4 °F 42.4 °F 37.4 °F 71% 29.73 in 10.0 mi WSW 8.1 mph - N/A   Clear
12:33 PM 46.4 °F 42.9 °F 39.2 °F 76% 29.74 in 10.0 mi West 6.9 mph - N/A   Clear
12:52 PM 48.2 °F - 39.2 °F 71% 29.73 in 10.0 mi West 4.6 mph - N/A   Clear
1:12 PM 46.4 °F - 41.0 °F 81% 29.73 in 10.0 mi Calm Calm - N/A   Clear
1:33 PM 50.0 °F - 41.0 °F 71% 29.72 in 10.0 mi WSW 3.5 mph - N/A   Clear
1:52 PM 48.2 °F - 42.8 °F 82% 29.72 in 10.0 mi West 5.8 mph - N/A   Clear
2:12 PM 50.0 °F - 42.8 °F 76% 29.71 in 10.0 mi West 5.8 mph - N/A   Clear
2:33 PM 50.0 °F - 42.8 °F 76% 29.70 in 10.0 mi West 6.9 mph - N/A   Clear
2:52 PM 50.0 °F - 42.8 °F 76% 29.70 in 10.0 mi West 5.8 mph - N/A   Clear
3:12 PM 50.0 °F - 42.8 °F 76% 29.70 in 10.0 mi West 5.8 mph - N/A   Clear
3:33 PM 50.0 °F - 42.8 °F 76% 29.69 in 10.0 mi WNW 5.8 mph - N/A   Clear
3:52 PM 48.2 °F - 42.8 °F 82% 29.69 in 10.0 mi WNW 8.1 mph - N/A   Clear
4:12 PM 48.2 °F - 44.6 °F 87% 29.69 in 10.0 mi WNW 3.5 mph - N/A   Clear
4:33 PM 48.2 °F - 44.6 °F 87% 29.69 in 10.0 mi Calm Calm - N/A   Clear
4:52 PM 48.2 °F - 44.6 °F 87% 29.69 in 10.0 mi WNW 3.5 mph - N/A   Clear
5:12 PM 48.2 °F - 44.6 °F 87% 29.68 in 10.0 mi Calm Calm - N/A   Clear
5:33 PM 48.2 °F - 44.6 °F 87% 29.68 in 10.0 mi Calm Calm - N/A   Clear
5:52 PM 46.4 °F - 44.6 °F 93% 29.68 in 10.0 mi Calm Calm - N/A   Clear
6:12 PM 46.4 °F - 42.8 °F 87% 29.70 in 10.0 mi Calm Calm - N/A   Clear
6:33 PM 44.6 °F - 42.8 °F 93% 29.70 in 1.2 mi Calm Calm - N/A   Mist
6:52 PM 42.8 °F - 41.0 °F 93% 29.71 in 7.0 mi Calm Calm - N/A   Clear
7:12 PM 42.8 °F - 41.0 °F 93% 29.71 in 3.0 mi Calm Calm - N/A   Clear
7:32 PM 42.8 °F - 41.0 °F 93% 29.70 in 5.0 mi Calm Calm - N/A   Clear
7:52 PM 41.0 °F - 39.2 °F 93% 29.70 in 0.5 mi Calm Calm - N/A Fog Fog
8:13 PM 39.2 °F - 39.2 °F 100% 29.71 in 0.2 mi Calm Calm - N/A Fog Fog
8:32 PM 39.2 °F - 39.2 °F 100% 29.72 in 0.5 mi Calm Calm - N/A Fog Fog
8:52 PM 39.2 °F - 37.4 °F 93% 29.73 in 0.2 mi Calm Calm - N/A Fog Fog
9:13 PM 35.6 °F - 35.6 °F 100% 29.73 in 0.2 mi Calm Calm - N/A Fog Fog
9:32 PM 37.4 °F - 37.4 °F 100% 29.72 in 0.2 mi Calm Calm - N/A Fog Fog
9:52 PM 37.4 °F - 35.6 °F 93% 29.72 in 0.5 mi Calm Calm - N/A Fog Fog
10:13 PM 39.2 °F - 37.4 °F 93% 29.71 in 0.5 mi Calm Calm - N/A Fog Fog
10:32 PM 37.4 °F - 37.4 °F 100% 29.71 in 0.8 mi Calm Calm - N/A   Overcast
10:52 PM 35.6 °F - 35.6 °F 100% 29.71 in 0.8 mi Calm Calm - N/A   Overcast
11:13 PM 37.4 °F 33.8 °F 35.6 °F 93% 29.69 in 0.8 mi NE 4.6 mph - N/A   Overcast
11:32 PM 39.2 °F 35.0 °F 39.2 °F 100% 29.69 in 10.0 mi NE 5.8 mph - N/A   Overcast
11:52 PM 37.4 °F 33.8 °F 37.4 °F 100% 29.69 in 10.0 mi NE 4.6 mph - N/A   Scattered Clouds